{"data":{"norad_id":60364,"intl_designator":"2024-138K","name":"STARLINK-32270","alt_names":[],"object_type":"PAYLOAD","status":"ACTIVE","operator":null,"country":"US","launch_date":"2024-08-04","launch_site_code":"AFWTR","launch_vehicle":null,"mission":null,"orbit_class":"UNKNOWN","rcs_meters":null,"size_class":null,"mass_kg":null,"dimensions":null,"purposes":["comms"],"wikipedia_slug":null,"has_3d_model":false,"image_url":null,"decayed_at":null,"tle_current":{"epoch":"2026-09-21T20:06:43.862688Z","epoch_age_seconds":70059,"freshness":"FRESH","line1":"1 60364U 24138K   26264.83800767  .00002026  00000+0  77051-4 0  9999","line2":"2 60364  53.1586 117.4636 0001271  96.9061 263.2085 15.31689866120573","mean_motion":15.31689866,"eccentricity":0.0001271,"inclination_deg":53.1586,"raan_deg":117.4636,"arg_perigee_deg":96.9061,"mean_anomaly_deg":263.2085,"bstar":7.7051e-5,"rev_number":12057,"period_min":94.0138099732,"perigee_km":469.89970821321,"apogee_km":471.64070042454,"semimajor_km":6848.9072043189,"source":"CELESTRAK","updated_at":"2026-09-22T09:00:49.225435Z"}}}